DELTA 1 DEB, 17000

Orbit data source: Space-Track

DELTA 1 DEB, 17000 is space debris in LEO originally from a launch on Thu, 29 Jul 1976 UTC launched from the Air Force Western Test Range (AFWTR). Debris objects in space refer to the collection of defunct objects orbiting the Earth. Examples of debris include non-operational satellites, rocket bodies, and fragments generated from explosions, collisions, or faulty payload assembly.

Loading next visibility...
Identifier
17000, 1976-077EX
Orbit
LEO
Country
Flag of USUS
Related business
Manufacturer
Unknown
Mission
Spacecraft
Bus & Motor
Unknown
Mass
Unknown
Launch date (UTC)
1976-07-29 (50 years ago)
Launch vehicle
Unknown
Launch site
Air Force Western Test Range (AFWTR)
Object type
Payload
Rocket body
Debris
Shape & HBR
Unknown shape, 0.1 m
Radar Cross Section
Small (<0.1 m²)

Expand to show TLE details & history
Last TLE update: 18 hours ago

TLE from 18 hours ago
0 DELTA 1 DEB
1 17000U 76077EX  26134.71837648 -.00003330  00000-0 -52850-1 0  9997
2 17000 102.4540 209.3331 0693116  70.9289  73.1342 11.32907173732970
Epoch: 2026-05-14T17:14Z
TLE epoch observation values (Epoch: 2026-05-14T17:14:27.727Z)
Latitude
27.48273°
Longitude
-95.1767°
Altitude
1,868.355 km
Speed
7.01 km/s
True Right ascension
02h 23m 35s
True Declination
27° 21' 40"
Sunlit
Object was in daylight at epoch
Visualization orbit readout
Latitude
Unknown
Longitude
Unknown
Altitude
Unknown
Speed
Unknown
Apparent Right ascension
Unknown
Apparent Declination
Unknown
Sunlit
N/A
Visualization observer readout
Local Sidereal Time
19:25:37
Azimuth
Unknown
Elevation
Unknown
Doppler factor
Unknown
Orbital elements
Apogee altitude
2,573.971 km
Perigee altitude
1,413.439 km
Semi-major axis
8,371.842 km
Eccentricity
0.06931
Inclination
102.454°
RAAN
209.3331°
Arg. of periapsis
70.9289°
True anomaly
80.90689°
Mean anomaly
73.1342°
Eccentric anomaly
77.00374°
Mean motion
2.83342 °/min
Orbital period
127.05 mins
BSTAR
-0.05285
Loading maneuver chart data...
Computing Atmospheric mass density...
Loading historical data...
Loading historical data...
Loading historical data...
Loading historical data...
Loading historical data...
Loading historical data...
Loading historical data...

Documentation

Showing up to 5 results
|